SL-19 DEB, 23489

Orbit data source: Space-Track

SL-19 DEB, 23489 is space debris in LEO originally from a launch on Mon, 26 Dec 1994 UTC launched from the Tyuratam Missile And Space Complex (TTMTR). Debris objects in space refer to the collection of defunct objects orbiting the Earth. Examples of debris include non-operational satellites, rocket bodies, and fragments generated from explosions, collisions, or faulty payload assembly.

Loading next visibility...
Identifier
23489, 1994-085M
Orbit
LEO
Country
Flag of CISCIS
Related business
Manufacturer
Unknown
Mission
Spacecraft
Bus & Motor
Unknown
Mass
Unknown
Launch date (UTC)
1994-12-26 (31 years ago)
Launch vehicle
Unknown
Launch site
Tyuratam Missile And Space Complex (TTMTR)
Object type
Payload
Rocket body
Debris
Shape & HBR
Unknown shape, 0.5 m
Radar Cross Section
Medium (>0.1 m² and <1 m²)

Expand to show TLE details & history
Last TLE update: 18 hours ago

TLE from 18 hours ago
0 SL-19 DEB
1 23489U 94085M   25309.67464527 -.00000147  00000-0 -28726-2 0  9993
2 23489  64.9341  25.9670 0195229 241.0578 274.9315 11.29011818270742
Epoch: 2025-11-05T16:11Z
TLE epoch observation values (Epoch: 2025-11-05T16:11:29.351Z)
Latitude
23.64648°
Longitude
-93.81091°
Altitude
2,006.021 km
Speed
6.903 km/s
True Right ascension
12h 56m 49s
True Declination
23° 32' 21"
Sunlit
Object was in daylight at epoch
Visualization orbit readout
Latitude
Unknown
Longitude
Unknown
Altitude
Unknown
Speed
Unknown
Apparent Right ascension
Unknown
Apparent Declination
Unknown
Sunlit
N/A
Visualization observer readout
Local Sidereal Time
05:47:23
Azimuth
Unknown
Elevation
Unknown
Doppler factor
Unknown
Orbital elements
Apogee altitude
2,177.862 km
Perigee altitude
1,850.184 km
Semi-major axis
8,392.16 km
Eccentricity
0.01952
Inclination
64.9341°
RAAN
25.967°
Arg. of periapsis
241.0578°
True anomaly
272.6985°
Mean anomaly
274.9315°
Eccentric anomaly
273.8154°
Mean motion
2.82314 °/min
Orbital period
127.52 mins
BSTAR
-0.0028726
Loading maneuver chart data...
Computing Atmospheric mass density...
Loading historical data...
Loading historical data...
Loading historical data...
Loading historical data...
Loading historical data...
Loading historical data...
Loading historical data...

Documentation

Showing up to 5 results
|